Cloud_Cover
0 0 0 0 0 0 0 0 0 2 1 0 0 4 3 5 4 5 92 44 74 8 80 94 36 0 9 58 11 30 22 35 7 52 0 82 100 100 100 100 100 100 100 18
0 0 0 0 0 0 0 0 0 0 0 0 0 0 5 4 0 0 4 55 90 94 100 10 0 46 53 14 0 66 79 82 82 100 100 78 58 68 74 69 40 96 65 100
0 0 0 0 0 0 0 0 0 0 0 0 0 0 0 0 0 0 0 0 0 0 0 30 1 0 4 4 69 99 100 100 100 100 96 43 63 64 48 12 11 58 68 54
1 0 0 0 0 0 0 0 0 0 0 0 0 0 78 13 2 0 0 0 0 0 0 0 0 1 0 22 56 31 100 100 46 55 73 30 40 70 73 71 97 100 68 74
5 5 0 0 0 0 0 0 0 0 0 0 5 2 35 57 2 2 0 0 0 0 0 0 0 0 0 4 45 100 100 100 100 85 65 69 12 0 0 4 13 65 5 5
0 5 5 5 14 3 5 0 0 4 5 5 5 7 56 100 95 17 0 0 0 0 0 0 1 4 4 0 27 80 99 92 48 13 4 0 0 0 34 54 68 74 13 8
0 0 5 5 5 3 5 5 5 5 5 5 28 62 92 4 1 0 0 0 0 0 0 5 5 5 5 5 24 51 61 29 0 0 0 13 73 72 13 22 37 5 5 18
4 0 0 0 2 0 0 2 4 68 80 47 52 1 49 0 0 0 0 0 0 5 5 5 5 5 5 5 8 7 5 0 0 0 23 30 6 5 5 5 5 5 5 12
17 5 4 5 0 0 0 0 0 5 1 31 100 100 0 0 0 0 0 1 5 5 5 5 5 5 5 5 0 0 0 0 0 0 0 1 10 81 9 5 7 6 64 45
14 8 4 5 5 4 5 4 4 2 5 5 7 77 93 5 2 4 5 10 50 5 5 5 5 5 1 0 0 0 0 0 0 0 0 7 61 25 6 17 30 58 97 86
5 32 6 58 81 6 2 5 5 5 5 51 54 100 89 95 49 94 55 15 5 5 5 5 5 0 0 0 0 0 0 0 0 0 0 1 82 6 67 18 56 70 100 100
98 69 8 95 84 31 54 72 56 6 87 18 30 100 100 81 40 40 8 5 5 5 5 0 0 0 0 0 0 0 0 0 0 0 0 5 5 19 33 59 100 96 100 100
100 99 100 12 48 100 100 88 19 5 19 72 100 100 34 27 98 98 27 5 5 0 0 0 0 0 0 0 0 0 0 0 0 0 21 8 4 4 12 41 51 100 100 100
100 100 100 88 97 100 58 63 74 77 87 100 100 98 65 55 38 89 11 0 0 0 0 0 0 0 0 0 0 0 0 0 0 9 19 5 5 3 100 100 100 100 100 100
100 99 100 100 100 99 97 92 26 13 84 100 100 83 99 100 44 23 2 0 0 0 0 0 0 3 0 5 0 0 0 0 1 6 8 5 1 0 25 98 76 100 99 100
42 99 83 100 98 29 98 98 98 21 97 100 99 79 100 70 14 0 3 99 2 0 0 0 2 33 32 10 0 0 0 0 3 20 12 14 0 3 35 26 100 78 100 98
0 0 4 5 60 100 30 12 84 97 67 100 100 100 98 15 2 0 2 5 1 1 0 2 22 40 42 6 0 0 0 0 10 80 1 0 1 5 6 63 100 100 100 93
0 0 76 100 100 100 40 97 87 100 66 99 99 93 49 20 0 0 0 0 0 0 0 2 28 53 25 11 2 0 0 16 100 5 5 5 5 5 63 90 100 97 6 5
5 4 93 100 93 48 45 3 2 100 80 73 66 28 0 0 0 0 0 0 0 0 0 13 49 55 50 6 0 0 0 14 5 6 5 4 41 98 100 28 42 38 5 5
97 6 86 100 16 100 83 5 2 5 3 76 52 5 3 0 0 6 0 0 0 0 0 18 44 50 4 0 0 0 37 20 5 38 5 5 5 100 100 94 10 5 11 5
92 31 32 90 100 62 47 100 73 89 58 5 2 4 0 2 0 0 0 0 0 0 0 20 0 0 0 0 2 59 6 5 8 47 5 5 5 100 94 79 46 100 78 5
16 100 100 99 32 39 100 50 60 66 6 0 0 0 0 0 0 0 0 0 4 3 4 4 3 3 3 5 5 5 6 42 5 5 5 4 5 6 16 100 100 100 100 5
100 85 100 100 94 13 100 98 3 0 0 0 2 0 1 0 0 0 0 3 5 5 5 5 5 5 1 5 5 6 4 4 3 5 5 5 0 5 12 100 32 99 27 96
48 10 64 45 5 4 20 100 0 0 4 5 4 0 0 1 5 5 5 6 5 22 9 5 5 5 5 4 0 5 5 0 2 2 4 74 100 34 89 100 100 100 100 52
70 14 54 28 92 84 16 8 5 2 3 0 0 2 5 5 5 5 5 5 81 63 5 5 5 5 5 0 4 5 5 2 4 0 13 98 100 100 100 100 100 100 96 14
99 57 55 100 39 42 12 69 100 9 5 5 31 38 5 5 5 11 14 30 78 18 5 5 5 5 5 4 4 5 5 5 0 2 52 71 100 100 100 100 100 100 100 4